Terug naar catalogus

STARLINK-30976

ActiefCommunicatieVLEO
NORAD 58447·PAYLOAD·🇺🇸 United States

Gelanceerd Nov 28, 2023 vanaf Cape Canaveral Space Force Station

Loading…

Volgende Passages (komende 24 uur)

TLE

VersSource: CelesTrak SupGP

Epoch: Sep 15, 2026, 03:20 UTC

1 58447C 23183L   26258.13937500 -.00084937  00000+0 -30763-2 0  2587
2 58447  43.0015  51.6992 0001838 267.6253 269.9809 15.27620648    11

Volg STARLINK-30976 in realtime met AllMySat

Download on the App Store